Regional Weather Roundup
Issued by NWS

Home | Current Version | Previous Version | Text Only | Print | Product List | Glossary Off
Versions: 1 2 3 4 5 6 7 8 9 10 11 12 13 14 15 16 17 18 19 20 21 22 23 24 25 26 27 28 29 30 31 32 33 34 35 36 37 38 39 40 41 42 43 44 45 46 47 48 49 50

000
ASUS45 KCYS 302110
RWRWY

WYOMING REGIONAL WEATHER ROUNDUP
NATIONAL WEATHER SERVICE CHEYENNE WY
200 PM MST FRI JAN 30 2015

NOTE:  "FAIR" INDICATES FEW OR NO CLOUDS BELOW 12,000 FEET
WITH NO SIGNIFICANT WEATHER AND/OR OBSTRUCTIONS TO VISIBILITY.

WYZ001-302200-
YELLOWSTONE NATIONAL PARK

CITY           SKY/WX    TMP DP  RH WIND       PRES   REMARKS
LK YELLOWSTONE   N/A     13   8  81 CALM      30.18F
W YELLOWSTONE  NOT AVBL

$$
WYZ002>013-054>058-071-098>099-302200-
NORTHERN WYOMING

CITY           SKY/WX    TMP DP  RH WIND       PRES   REMARKS
JACKSON        NOT AVBL
CODY           FAIR      41  23  48 CALM      30.16F
GREYBULL       FOG       28  27  96 S3        30.20F VSB<1/4
WORLAND        FAIR      31  26  82 CALM      30.19F
SHERIDAN       FAIR      50  18  28 NW5       30.17F
BUFFALO        FAIR      45  16  31 N13G23    30.18F
GILLETTE       FAIR      46  23  40 N12       30.16F
HULETT           N/A    N/A N/A N/A MISG        N/A
NEWCASTLE      FAIR      50  23  34 NW9       30.12F

$$
WYZ014>020-022>026-101>103-302200-
CENTRAL WYOMING

CITY           SKY/WX    TMP DP  RH WIND       PRES   REMARKS
BIG PINEY      FAIR      34  18  52 E6        30.13F WCI  29
PINEDALE       FAIR      30  14  51 NW6       30.13F WCI  24
DUBOIS         FAIR      37   5  25 SE8       30.12F WCI  31
LANDER         FAIR      38  25  59 CALM      30.14F
RIVERTON       FAIR      38  29  70 E3        30.16F
CASPER         FAIR      44  19  36 N6        30.14F
DOUGLAS        FAIR      46  19  34 N12       30.14F

$$
WYZ021-027>030-104>119-302200-
SOUTHERN WYOMING

CITY           SKY/WX    TMP DP  RH WIND       PRES   REMARKS
EVANSTON       CLOUDY    34  27  75 N7        30.08F WCI  28
KEMMERER       FAIR      36  27  69 NE10      30.10F WCI  28
FORT BRIDGER   FAIR      35  29  79 NE7       30.12F WCI  29
ROCK SPRINGS   CLOUDY    36  30  79 NE7       30.09F WCI  30
DIXON          FAIR      42  34  74 W5        30.09F
RAWLINS        FAIR      39  32  76 N10       30.10F WCI  32
SARATOGA       FAIR      37  32  81 N8        30.10F WCI  31
LARAMIE        FAIR      37  28  70 N8        30.10F WCI  31
CHEYENNE       FAIR      45  23  42 NE12G20   30.09F
TORRINGTON     FAIR      45  26  47 VRB5      30.10F
PINE BLUFFS    FAIR      46  25  42 NE10      30.09F

$$



USA.gov is the U.S. government's official web portal to all federal, state and local government web resources and services.